Location: Newark
(44.3248°N, 23.7839°E)
Time: 04:43:26
(UTC+00:00)

FO-29 - Pass Details

Date: 30 April 2024
Orbit: 801 x 1320 km, 98.6° (Epoch: 28 May)

Event Time Altitude Azimuth Distance (km) Brightness Sun altitude
Rises 00:08:24 0° 14° (NNE) 4,265 14.1 -26.1°
Reaches altitude 10° 00:11:05 10° 16° (NNE) 3,324 13.2 -25.8°
Maximum altitude 00:18:57 76° 103° (ESE) 1,359 10.1 -25.1°
Enters shadow 00:22:15 39° 180° (S) 1,863 10.5 -24.8°
